星链-1944 (STARLINK-1944 )

导读 | 豆包AI

STARLINK-1944是美国SpaceX星链计划的卫星,于2020年10月24日发射入轨,属于星链低轨互联网星座组网卫星。它旨在为全球提供高速宽带互联网服务,尤其覆盖偏远地区。星链卫星运行于近地轨道,可降低通信延迟,该卫星承担着星座组网运营任务,助力SpaceX推进全球卫星互联网布局。

基本信息
目录编号:
46796
目录名称:
STARLINK-1944
国际标识:
2020-074BK
轨道中心:
EARTH
卫星名称:
星链-1944
卫星全名:
星链-1944 (STARLINK-1944 )
卫星状态:
在轨 (已飞行1988 天)
发射日期:
2020-10-24 UTC
国别 :
美国 (US)
星等 :
--
轨道信息
数据来源 国际轨道数据
星历时间: 2026-04-04T04:00:02+0800
7小时前
查看轨道信息
半长轴: 6736.547km
偏心率: 0.0006769
轨道倾角: 53.042°
近地点辐角 26.559°
升交点赤经 147.030°
平近点角 253.195°
近地点: 353.85km
远地点: 362.97km
周期: 91.710分钟
每日圈数: 15.701703
详细信息
固有亮度:
5
最大亮度:
2.5
卫星平台:
Starlink V1.0
覆盖范围:
全球
运营商:
太空探索技术公司
运营商所在国:
美国
制造商(研发单位):
太空探索技术公司
制造商所在国:
美国
使用方式:
暂无
卫星简介
星链(Starlink)计划是由太空探索技术公司(SpaceX)提出的一个巨型低轨卫星互联网星座项目,计划在2019年至2024年间在太空搭建由约1.2万颗卫星组成的“星链”网络,其中1584颗将部署在地球上空550千米处的近地轨道,并从2020年开始工作。该卫星仍在工作。
2D轨道图
3D轨道图
轨道高度分析图
轨道倾角分析图
轨道综合分析图
查看轨道综合分析图